Regional Weather Roundup
Issued by NWS San Angelo, TX

Home | Current Version | Previous Version | Text Only | Print | Product List | Glossary On
Versions: 1 2 3 4 5 6 7 8 9 10 11 12 13 14 15 16 17 18 19 20 21 22 23 24 25 26 27 28 29 30 31 32 33 34 35 36 37 38 39 40 41 42 43 44 45 46 47 48 49 50
000
ASUS44 KSJT 030810
RWRSJT
WEST CENTRAL TEXAS REGIONAL WEATHER ROUNDUP
NATIONAL WEATHER SERVICE SAN ANGELO TX
200 AM CST SAT DEC 03 2016

NOTE: "FAIR" INDICATES FEW OR NO CLOUDS BELOW 12,000 FEET WITH NO
SIGNIFICANT WEATHER AND/OR OBSTRUCTIONS TO VISIBILITY.

TXZ049-054-064>066-071>073-076>078-098-099-113-114-127-128-139-140-
154-155-168>170-030900
...LOCATIONS ACROSS WEST CENTRAL TEXAS...

CITY           SKY/WX    TMP DP  RH WIND       PRES   REMARKS
SAN ANGELO     CLOUDY    48  44  86 NE10      30.00F
ABILENE        LGT RAIN  47  44  90 E7        30.06F
DYESS AFB      CLOUDY    47  44  90 NE6       30.06R
JUNCTION       HVY RAIN  48  48 100 E12       29.97F FOG
SWEETWATER     CLOUDY    46  46 100 NE12      30.08R WCI  40
BROWNWOOD      LGT RAIN  48  45  87 NE13G21   30.03F
COLEMAN        CLOUDY    48  44  87 E12       30.03F
SONORA         LGT RAIN  52  52 100 NE7G14    29.98F
OZONA          CLOUDY    54  52  94 E8        29.97F
BRADY          NOT AVBL
$$

TEXAS PANHANDLE/OKLAHOMA PANHANDLE

CITY           SKY/WX    TMP DP  RH WIND       PRES   REMARKS
AMARILLO       LGT RAIN  35  35 100 NE9       30.16S FOG     WCI  28
BORGER         LGT RAIN  35  35 100 N8        30.18S FOG     WCI  29
CANADIAN       DRIZZLE   39  38  94 E5        30.20S WCI  36
DALHART        LGT SNOW  32  31  96 N12       30.20F FOG     WCI  23
DUMAS          CLOUDY    32  31  97 N8        30.18S WCI  25
GUYMON         NOT AVBL
HEREFORD       CLOUDY    37  37 100 NE12      30.15S FOG     WCI  29
PAMPA          DRIZZLE   37  36  96 E13       30.16S WCI  29
PERRYTON       CLOUDY    35  34  96 E12       30.19S WCI  26
$$

SOUTHERN PANHANDLE/SOUTH PLAINS/ROLLING PLAINS

CITY           SKY/WX    TMP DP  RH WIND       PRES   REMARKS
LUBBOCK        LGT RAIN  39  38  96 NE13      30.08S FOG     WCI  31
SNYDER         DRIZZLE   44  42  93 NE12      30.06F WCI  38
CHILDRESS      LGT RAIN  44  42  93 E8        30.16F FOG     WCI  39
SEMINOLE       HVY RAIN  40  40 100 NE10      30.06R WCI  34
$$

PERMIAN BASIN

CITY           SKY/WX    TMP DP  RH WIND       PRES   REMARKS
MIDLAND        CLOUDY    45  43  93 NE14      29.98F WCI  38
ODESSA         LGT RAIN  45  42  89 NE15      29.99F FOG     WCI  38
WINK           LGT RAIN  43  43 100 N14       30.00F WCI  36
$$

FAR WEST/SOUTHWEST MOUNTAINS/TRANS PECOS

CITY           SKY/WX    TMP DP  RH WIND       PRES   REMARKS
ALPINE         CLOUDY    44  43  97 E3        30.02F
DRYDEN           N/A     57  56  96 E10       29.89F
EL PASO        CLOUDY    45  38  76 N9        29.93
FORT STOCKTON  NOT AVBL
GUADALUPE PASS RAIN      39  39 100 NE28G33   29.96F WCI  28
MARFA          CLOUDY    44  42  93 NE7       29.96S
PECOS          CLOUDY    45  43  95 N12       30.00F WCI  39
$$

DALLAS/FORT WORTH METROPLEX

CITY           SKY/WX    TMP DP  RH WIND       PRES   REMARKS
DFW AIRPORT    LGT RAIN  54  42  64 E10       30.12S
FTW MEACHAM    CLOUDY    52  42  69 E7        30.13R
DAL-EXECUTIVE  RAIN      50  45  83 SE10G21   30.13R
GRAND PRAIRIE  MOCLDY    51  42  69 E13G20    30.14R
ADDISON        LGT RAIN  52  47  82 E6        30.16S
MESQUITE       CLOUDY    51  41  69 E8        30.16R
LANCASTER      LGT RAIN  49  44  83 E8        30.16R
$$

NORTH CENTRAL TEXAS

CITY           SKY/WX    TMP DP  RH WIND       PRES   REMARKS
SHRMAN/DENISON CLOUDY    49  46  89 NE6       30.18S
GAINESVILLE    NOT AVBL
BRIDGEPORT     CLOUDY    48  46  91 NE7       30.14F
DENTON         CLOUDY    50  44  80 NE10      30.14S
WAXAHACHIE     LGT RAIN  47  47 100 E7        30.13F
GRANBURY       LGT RAIN  51  44  79 E9        30.12S
$$

WESTERN NORTH TEXAS

CITY           SKY/WX    TMP DP  RH WIND       PRES   REMARKS
WICHITA FALLS  LGT RAIN  46  42  86 NE9       30.16F
VERNON         CLOUDY    47  43  84 NE6       30.18F
BRECKENRIDGE   LGT RAIN  50  44  80 E8        30.07F
COMANCHE       CLOUDY    47  46  94 E13G18    30.06F
$$

CENTRAL AND SOUTH CENTRAL TEXAS

CITY           SKY/WX    TMP DP  RH WIND       PRES   REMARKS
AUSTIN/BERGSTM RAIN      52  51  97 NE12      30.01R FOG
WACO           LGT RAIN  48  47  96 NE13      30.07F
HILLSBORO      HVY RAIN  48  46  92 NE13G18   30.10F
TEMPLE         LGT RAIN  47  46  97 NE13      30.04F FOG
KILLEEN-GRAY   LGT RAIN  46  46 100 E12       30.03R FOG
FORT HOOD      CLOUDY    46  46 100 NE10      30.02F FOG
GEORGETOWN     CLOUDY    48  46  93 N9        30.03R
LAGO VISTA     RAIN      49  48  97 E12G18    30.01R VSB 1
SAN MARCOS     CLOUDY    61  50  67 NE13      29.98F
NEW BRAUNFELS  RAIN      53  51  93 NE13      29.96R FOG
RANDOLPH AFB   HVY RAIN  52  52 100 NE12      29.94F FOG
SAN ANTONIO    RAIN      53  51  93 NE10      29.95F
STINSON        HVY RAIN  54  51  90 N6        29.93F FOG
PLEASANTON     NOT AVBL
LA GRANGE      CLOUDY    53  51  94 E6        29.95F
GIDDINGS       LGT RAIN  50  49  96 NE8       30.02F
$$

EAST TEXAS

CITY           SKY/WX    TMP DP  RH WIND       PRES   REMARKS
PARIS          CLOUDY    52  37  58 E8        30.18S
CLARKSVILLE    NOT AVBL
TYLER          RAIN      48  46  93 E13       30.12F
LONGVIEW       RAIN      48  47  96 E9        30.14F
PALESTINE      LGT SNOW  48  47  98 E13G18    30.09F
NACOGDOCHES    CLOUDY    48  45  87 E7        30.07F
$$

TEXAS HILL COUNTRY AND EDWARDS PLATEAU

CITY           SKY/WX    TMP DP  RH WIND       PRES   REMARKS
LLANO          CLOUDY    48  48 100 E7        30.03F FOG
HORSESHOE BAY  DRIZZLE   49  49  99 E7        30.01S
KERRVILLE      NOT AVBL
FREDERICKSBRG  DRIZZLE   48  47  96 E9G18     29.98S
ROCKSPRINGS    RAIN      52  52 100 E9        29.94F
HONDO          HVY RAIN  54  53  97 E13G23    29.92F FOG
UVALDE         RAIN      53  52  97 NE20      29.89F
DEL RIO        RAIN      59  58  96 S6        29.92R FOG
$$

SOUTHEAST TEXAS

CITY           SKY/WX    TMP DP  RH WIND       PRES   REMARKS
COLLEGE STN    CLOUDY    50  49  96 NE10      30.01F
CALDWELL       NOT AVBL
CROCKETT       LGT RAIN  48  46  93 NE7       30.09F
BRENHAM        LGT RAIN  52  51  96 NE6       30.00F
HUNTSVILLE     LGT RAIN  49  46  90 E6        30.04F
CONROE         CLOUDY    50  45  83 N6G18     30.02S
HOUSTON BUSH   LGT RAIN  53  48  83 NE13      29.98F
HOUSTON HOBBY  LGT RAIN  56  53  90 NE16      29.95F
PERLAND        LGT RAIN  57  54  89 NE15      29.96F FOG
WHARTON        RAIN      55  54  96 N8        29.94F
$$

THE UPPER TEXAS COAST

CITY           SKY/WX    TMP DP  RH WIND       PRES   REMARKS
ORANGE         CLOUDY    59  41  51 E15G25    30.03S
PORT ARTHUR    CLOUDY    60  45  57 E24G33    29.98F
GALVESTON      HVY RAIN  66  65  96 NE17      29.93F FOG
ANGLETON       LGT RAIN  64  63  96 NE10      29.90F
BAY CITY       NOT AVBL
$$

TEXAS COASTAL BEND, RIO GRANDE PLAINS DEEP SOUTH TEXAS

CITY           SKY/WX    TMP DP  RH WIND       PRES   REMARKS
VICTORIA       CLOUDY    56  53  90 NE15G22   29.90F
BEEVILLE       NOT AVBL
ROCKPORT         N/A    N/A N/A N/A MISG      29.86F
PORT ARANSAS   CLOUDY    64  64  99 N9        29.86F
PORT LAVACA    LGT RAIN  57  57 100 N13       29.89F
CORPUS CHRISTI CLOUDY    66  63  90 NE9       29.85F
KINGSVILLE NAS CLOUDY    68  68 100 NE9       29.85F
COTULLA        CLOUDY    60  57  89 NE14      29.87S
LAREDO         NOT AVBL
BROWNSVILLE    MOCLDY    76  72  87 S10       29.85S
PORT ISABEL    CLOUDY    75  73  93 S9        29.84S
HEBBRONVILLE   RAIN      69  68  97 SE9G17    29.84F
MCALLEN        CLOUDY    77  71  82 SE12      29.83S
WESLACO        CLOUDY    74  72  92 S10G16    29.83S
FALFURRIAS     CLOUDY    72  70  95 E6        29.84S
EDINBURG       CLOUDY    76  72  87 SE5       29.84S
$$




USA.gov is the U.S. government's official web portal to all federal, state and local government web resources and services.